GFSFLT1_700_rhum_135.txt.gz
RH
29 31 33 35 37 38 37 37 36 36 33 24 19 15 16 16 16 16 14 11 19 94 98 82 87 45 52 52 50 57 48 40
36 38 40 42 45 45 44 39 35 30 24 22 20 18 18 17 17 19 18 15 12 25 90 96 76 67 34 54 53 54 55 47
45 48 51 50 47 36 28 27 27 28 28 28 28 25 23 21 18 19 21 20 13 17 39 97 95 64 45 57 49 47 58 60
53 54 51 43 33 29 27 33 44 44 45 42 37 31 26 24 22 21 26 24 18 16 19 85 87 91 74 58 48 46 56 77
57 53 42 37 34 31 35 43 47 47 43 42 42 31 28 28 28 25 27 27 23 17 20 30 99 99 93 73 51 55 61 69
52 42 42 37 37 39 45 47 56 54 55 49 45 43 39 33 30 29 29 30 30 23 22 23 71 99 100 88 60 66 56 66
46 49 41 43 45 53 60 59 56 52 55 60 57 46 42 49 46 31 29 32 33 28 23 24 32 57 98 99 85 62 57 56
53 46 41 44 48 57 63 61 56 48 56 59 64 55 47 41 52 45 34 34 32 32 29 25 26 33 49 95 100 70 63 60
57 52 51 61 64 71 70 66 58 56 56 64 72 76 64 63 74 72 44 41 37 37 35 29 28 30 39 97 99 97 67 61
61 58 66 78 75 82 82 80 73 67 66 74 93 83 73 82 92 88 69 48 40 40 40 34 29 29 34 84 98 85 88 67
57 66 77 82 77 75 90 88 84 81 78 80 90 97 98 73 100 97 82 58 40 27 20 32 35 20 28 54 96 91 97 72
51 58 76 81 74 64 72 90 91 86 91 85 81 94 99 79 83 98 63 48 36 29 22 18 27 22 18 29 74 100 99 72
53 56 58 82 74 64 47 73 78 91 94 95 91 85 84 91 93 100 98 77 40 31 28 32 27 24 59 30 55 79 90 89
59 60 53 52 77 64 43 46 56 50 87 96 100 95 97 94 94 97 98 100 100 100 83 74 62 55 54 68 83 78 79 98
63 58 50 46 46 54 40 40 42 43 42 76 92 96 95 97 99 98 100 100 100 100 91 70 80 68 100 100 99 100 100 100
64 52 49 44 38 33 30 28 27 27 32 37 49 92 97 96 96 97 98 99 99 100 100 100 96 98 100 82 85 85 88 100
58 51 44 38 34 26 18 14 13 13 13 13 16 26 41 87 92 96 98 98 98 99 99 100 100 99 99 93 78 78 95 99
57 52 41 37 24 15 14 13 13 12 12 11 11 11 11 12 18 28 48 54 62 80 92 94 86 82 86 82 86 88 86 98
59 49 43 32 17 14 14 13 13 12 11 11 11 10 10 10 10 10 10 11 12 13 19 25 29 28 30 32 28 45 61 64

GFSFLT1_700_rhum_138.txt.gz
RH
34 30 29 36 41 39 41 41 37 34 28 23 21 19 17 16 15 13 13 12 14 16 14 13 45 85 88 54 42 34 34 59
29 35 43 48 46 46 43 39 34 26 22 19 20 22 22 19 22 21 16 15 14 14 16 13 12 47 97 83 62 40 37 58
45 56 54 49 48 46 39 30 25 22 21 23 25 29 27 21 21 26 25 21 17 16 16 16 11 34 65 100 81 67 52 62
48 56 52 48 38 32 29 26 25 27 31 33 35 44 42 36 27 22 27 26 23 20 17 18 17 19 53 58 99 80 65 64
59 56 47 41 37 33 32 34 38 47 49 45 45 44 36 38 33 32 31 28 26 23 20 20 22 19 22 63 69 88 82 69
57 48 46 44 41 36 44 50 51 56 54 48 42 38 28 30 37 36 42 33 31 26 23 23 26 25 23 32 79 96 73 78
51 50 52 49 43 46 62 57 61 59 52 47 38 36 40 42 47 51 43 36 36 35 29 25 29 33 25 30 33 85 91 92
60 55 51 46 44 63 65 63 59 57 56 48 45 49 46 45 51 58 53 48 47 45 35 34 36 40 29 26 28 48 85 96
62 54 50 47 63 63 61 67 63 60 59 54 56 59 53 51 58 39 49 63 60 52 45 38 40 42 35 25 27 29 99 82
61 52 48 48 71 64 46 55 59 58 68 64 59 58 66 76 66 33 44 79 79 63 52 47 48 44 33 27 27 27 52 82
63 53 47 48 62 67 44 44 62 48 71 79 74 73 81 95 64 49 75 97 94 64 52 52 48 43 35 29 32 30 34 85
65 52 51 48 48 65 45 38 37 43 41 81 84 86 86 92 100 90 97 98 97 76 38 27 26 37 33 30 30 25 30 30
66 54 51 44 41 42 39 28 25 25 33 70 88 96 100 94 100 87 91 98 98 88 50 30 24 16 14 28 31 27 19 32
62 59 48 40 39 32 26 19 16 14 15 21 56 94 95 94 100 100 95 88 98 98 94 83 51 32 22 24 33 55 35 24
62 61 45 40 33 30 19 14 13 12 12 12 13 26 89 96 98 98 98 98 99 99 99 100 100 100 98 90 60 67 100 99
68 58 46 37 33 24 15 13 13 12 11 10 10 10 14 28 89 94 97 97 97 99 99 97 100 100 100 100 99 100 99 100
71 56 47 36 31 18 14 14 13 12 11 11 10 9 9 9 10 13 27 91 97 95 97 98 98 99 99 99 99 100 99 100
66 57 47 38 27 16 14 14 13 12 12 11 11 11 11 11 10 10 9 10 13 20 37 86 97 99 98 98 98 98 99 99
66 60 48 40 24 15 14 14 13 13 12 13 13 13 13 14 13 12 12 12 11 10 9 9 10 13 16 18 22 26 35 51

GFSFLT1_700_rhum_141.txt.gz
RH
30 32 31 30 41 48 44 35 35 34 28 25 23 21 19 16 15 16 16 12 11 12 11 9 9 12 13 32 90 98 95 60
34 28 35 39 53 47 43 39 31 28 25 22 19 18 18 18 20 20 21 25 22 14 12 10 12 11 12 15 57 78 97 81
39 48 46 56 50 46 37 33 30 25 21 20 21 22 25 27 31 28 26 33 32 25 20 17 13 14 13 12 16 67 83 90
51 54 57 52 45 40 36 33 29 28 28 32 34 35 39 40 35 31 33 33 26 29 24 22 18 18 18 16 14 33 67 99
62 59 52 44 44 43 40 34 31 37 47 50 49 44 39 36 32 28 26 26 21 22 28 27 20 23 22 21 18 18 21 29
61 46 51 53 48 44 39 39 42 52 52 50 48 45 40 33 31 30 30 32 34 39 37 38 25 28 28 28 24 30 35 33
52 52 61 54 47 43 40 48 50 54 53 54 51 44 36 29 33 40 35 31 36 50 44 44 36 32 30 34 31 32 25 48
55 68 59 51 45 40 40 49 44 49 50 42 54 44 40 46 47 49 48 40 28 28 47 46 41 39 34 43 35 36 27 27
63 69 60 51 46 40 43 43 31 23 27 40 59 49 43 52 62 66 56 38 28 32 48 52 50 50 39 50 50 35 32 24
71 69 59 50 48 38 42 38 22 17 16 35 64 52 54 71 57 42 32 34 40 52 68 73 66 55 52 59 60 43 37 27
66 66 58 53 45 36 36 27 17 14 13 16 66 68 64 73 73 68 72 88 94 97 100 100 71 60 62 65 60 46 39 29
71 71 58 54 42 35 27 18 14 12 12 12 42 56 77 71 80 77 65 77 80 99 99 100 98 72 69 65 56 49 44 31
74 68 59 53 41 31 24 16 13 12 11 10 12 25 83 78 87 86 85 94 76 88 98 99 100 76 72 61 50 46 41 31
71 61 63 50 40 31 19 14 13 12 11 10 10 10 19 49 94 96 98 82 65 75 85 86 100 79 74 55 45 43 40 36
68 65 64 49 40 30 16 14 13 12 11 10 10 10 9 10 25 81 97 100 96 96 98 98 98 65 44 40 39 37 37 33
71 70 62 51 40 26 15 14 13 12 12 11 11 11 11 10 10 9 23 88 95 96 96 96 98 99 100 100 100 98 100 100
76 73 61 52 41 23 15 14 14 12 12 13 13 12 12 12 12 12 11 10 23 47 78 96 100 96 97 97 98 98 99 100
78 72 63 54 41 21 15 14 14 13 14 14 13 12 11 10 11 12 12 12 12 11 11 15 33 63 74 84 96 97 97 97
78 73 70 55 40 20 15 14 14 14 15 14 13 12 12 12 12 11 11 11 10 10 10 10 11 10 10 9 9 12 12 22

GFSFLT1_700_rhum_144.txt.gz
RH
29 32 35 36 32 36 45 50 42 36 32 29 27 24 21 19 17 16 15 15 14 13 14 14 13 10 12 11 10 10 44 64
33 36 38 38 45 52 53 44 38 35 32 26 19 17 18 19 20 18 17 19 20 15 13 16 16 14 11 12 12 10 11 30
41 42 48 54 58 52 43 39 38 34 27 24 24 27 32 33 33 31 30 30 31 30 27 23 26 25 19 14 16 14 10 18
45 56 62 57 43 40 42 42 36 31 29 30 37 43 44 41 39 37 37 35 33 29 27 25 27 28 23 19 21 21 12 29
51 52 55 40 45 52 46 41 36 32 32 37 42 43 42 41 37 35 35 33 33 29 26 22 22 22 22 22 19 23 23 21
43 47 40 47 57 51 45 38 34 34 34 32 27 32 40 38 34 36 39 40 38 35 33 32 28 24 23 23 26 24 26 25
43 43 49 61 57 51 44 37 37 30 21 14 15 38 42 36 36 43 47 56 55 46 38 31 26 31 34 35 40 33 28 28
50 51 58 64 59 49 43 33 39 19 14 12 23 47 45 40 46 54 50 51 57 52 42 34 28 29 44 44 48 40 33 32
56 52 57 59 56 50 39 31 27 15 12 11 23 37 55 58 70 65 68 54 49 44 37 27 35 46 50 50 51 45 47 71
57 52 62 62 56 49 34 23 17 13 12 10 15 40 57 64 73 68 63 53 68 70 74 64 58 58 58 60 62 48 54 56
62 60 68 67 55 44 29 21 16 13 11 10 9 12 46 67 76 70 66 65 66 80 100 96 100 100 82 69 61 58 62 69
68 69 72 60 56 39 28 21 15 13 11 10 9 10 14 59 83 79 74 71 76 76 88 99 100 99 83 68 75 92 89 67
75 74 72 61 53 39 29 20 14 13 11 10 10 10 10 10 62 90 90 84 82 72 80 77 89 98 80 91 97 99 85 66
75 74 65 64 52 40 28 19 14 13 11 11 12 12 11 10 10 43 95 98 99 100 90 79 95 98 99 100 100 89 74 61
75 74 68 68 53 40 28 17 14 13 12 13 13 12 12 12 12 11 20 86 98 97 98 90 98 100 76 96 98 100 86 66
83 76 73 67 54 42 26 16 14 13 13 14 13 12 12 11 11 11 12 13 18 64 94 96 97 98 99 100 83 66 64 61
88 78 77 66 57 44 26 16 14 14 14 14 13 12 12 12 11 11 10 12 12 12 14 32 86 96 96 97 98 97 98 99
83 80 78 68 61 46 25 16 15 14 15 15 14 13 13 12 12 11 10 10 9 10 11 11 11 11 14 35 61 85 91 94
82 83 79 75 68 47 24 15 15 15 16 15 15 15 14 14 14 13 12 11 10 9 8 7 8 8 10 11 11 13 20 37

GFSFLT1_700_rhum_147.txt.gz
RH
30 32 32 32 34 33 31 37 44 46 38 28 26 28 22 18 17 17 16 17 16 14 13 13 14 13 14 15 16 16 14 13
32 34 36 36 34 46 53 52 39 32 30 32 29 21 19 19 22 26 24 24 24 25 20 16 16 17 16 15 15 17 14 13
34 35 36 45 54 56 42 35 42 43 38 30 23 20 20 21 26 32 35 33 28 28 28 26 25 28 30 24 21 20 19 16
36 44 48 52 52 39 39 48 47 41 32 26 25 22 20 21 24 30 35 36 33 31 33 33 33 34 32 29 29 27 30 26
45 44 47 46 39 49 55 51 45 37 29 28 21 18 20 21 25 34 33 32 31 32 33 33 31 31 28 26 25 25 28 30
35 40 41 44 44 49 54 50 43 33 30 21 15 15 18 27 38 37 39 44 44 43 41 39 37 37 35 31 28 26 26 28
43 42 50 50 47 53 54 48 38 32 23 16 13 11 18 27 44 42 54 58 59 51 52 57 57 49 41 33 30 29 28 32
47 56 60 54 49 56 54 47 31 22 15 13 11 9 13 30 51 50 52 54 61 56 47 46 42 38 38 38 31 31 37 38
58 61 63 54 57 62 54 40 26 17 13 12 10 8 9 21 51 55 57 55 50 51 49 49 57 55 52 31 28 28 44 47
40 45 60 56 62 62 52 34 22 16 13 12 9 8 8 10 32 56 63 70 74 71 77 73 69 76 83 62 53 53 57 61
52 42 44 63 66 59 50 32 22 15 13 12 9 9 9 9 11 62 66 78 88 87 78 66 51 57 87 88 94 89 77 66
44 53 65 68 69 60 47 31 20 15 13 12 10 10 10 10 10 31 72 79 90 84 76 68 64 85 75 85 88 97 97 99
54 63 74 71 66 62 46 32 20 15 14 12 11 11 12 11 11 12 46 76 90 93 87 95 96 99 100 98 99 99 99 100
66 82 82 73 67 63 46 32 20 15 14 12 12 12 11 11 11 12 14 24 59 95 95 92 97 99 99 96 99 75 93 94
73 93 84 75 71 62 47 32 20 15 14 13 12 12 11 11 11 10 11 13 26 37 92 97 96 98 98 99 97 97 99 97
78 97 90 77 75 62 50 33 19 15 14 14 13 12 12 12 11 10 10 10 11 12 32 78 95 97 97 97 98 89 91 80
96 92 89 80 75 64 52 33 18 15 14 14 14 13 13 13 12 11 10 9 8 8 10 11 23 47 84 95 97 98 99 94
83 88 83 81 74 68 55 32 17 14 15 15 14 15 15 14 14 14 12 11 10 9 8 7 7 9 10 14 22 52 53 60
87 85 83 82 78 75 59 28 16 15 16 16 15 16 16 16 16 16 15 14 13 12 11 9 7 6 6 6 7 9 12 17